Regional Weather Roundup
Issued by NWS Green Bay, WI

Home | Current Version | Previous Version | Text Only | Print | Product List | Glossary On
Versions: 1 2 3 4 5 6 7 8 9 10 11 12 13 14 15 16 17 18 19 20 21 22 23 24 25 26 27 28 29 30 31 32 33 34 35 36 37 38 39 40 41 42 43 44 45 46 47 48 49 50
000
ASUS43 KGRB 210110
RWRGRB

NORTH-CENTRAL AND NORTHEAST WISCONSIN REGIONAL WEATHER ROUNDUP
NATIONAL WEATHER SERVICE GREEN BAY WI
800 PM CDT MON OCT 20 2014

WIZ005-009-010>012-018-019-210200-
NORTH CENTRAL WISCONSIN

CITY           SKY/WX    TMP DP  RH WIND       PRES   REMARKS
IRONWOOD       MOCLDY    45  43  93 NE3       30.04R
MANITOWISH WTR DRIZZLE   43  42  97 N5        30.04R
ARBOR VITAE    DRIZZLE   44  42  93 NW7       30.03R
EAGLE RIVER    DRIZZLE   42  41  96 N7        30.02R
LAND O LAKES   LGT RAIN  42  39  90 N7        30.04R
RHINELANDER    CLOUDY    43  41  93 CALM      30.03S
PHILLIPS       CLOUDY    46  40  79 N8        30.04R
ANTIGO         CLOUDY    44  40  87 N8        30.02S
TOMAHAWK       CLOUDY    45  40  83 CALM      30.04R
MERRILL        CLOUDY    47  40  78 N8        30.03R
$$

WIZ013-073-210200-
NORTHEAST WISCONSIN

CITY           SKY/WX    TMP DP  RH WIND       PRES   REMARKS
IRON MOUNTAIN  CLOUDY    45  38  76 N12       30.00R
MARINETTE      CLOUDY    46  39  76 N6        29.99R
OCONTO         CLOUDY    47  42  81 N7        30.00R
$$

WIZ017-030-035>037-045-210200-
CENTRAL WISCONSIN

CITY           SKY/WX    TMP DP  RH WIND       PRES   REMARKS
MEDFORD        CLOUDY    46  39  76 N3        30.03R
WAUSAU         CLOUDY    47  40  76 CALM      30.02R
MOSINEE        CLOUDY    46  41  81 N7        30.04R
MARSHFIELD     CLOUDY    50  41  71 N3        30.03R
WISC RAPIDS    CLOUDY    51  40  65 N6        30.04R
STEVENS POINT  CLOUDY    47  38  71 N7        30.03R
WAUPACA        CLOUDY    52  41  67 NW7       30.02R
SHAWANO        CLOUDY    50  41  70 N9        30.01R
CLINTONVILLE   CLOUDY    50  41  71 N6        30.01R
$$

WIZ038-039-048-051-210200-
FOX VALLEY

CITY           SKY/WX    TMP DP  RH WIND       PRES   REMARKS
NWS GREEN BAY  CLOUDY    48  44  86 N9        30.00R
APPLETON       CLOUDY    50  43  76 W12       30.00R VSB 1
OSHKOSH        CLOUDY    51  44  77 NW7       30.00R
FOND DU LAC    CLOUDY    50  43  77 NW6       30.00R
$$

WIZ022-050-052-210200-
EAST CENTRAL WISCONSIN

CITY           SKY/WX    TMP DP  RH WIND       PRES   REMARKS
STURGEON BAY   CLOUDY    48  39  71 N14G20    29.99R
MANITOWOC      MOCLDY    49  44  83 NW8       29.98R
SHEBOYGAN      CLOUDY    49  43  80 NW7       29.99R
$$

LMZ563-521-522-541>543-210200-
LAKESHORE

STATION/POSITION TIME  TEMP    WIND        PRES    VSBY  WAVE
                       AIR SEA DIR/SP/G                  HT/PER
                 (UTC) (F)     (DEG/KT/KT) (MB)    (MI)  (FT/S)
SHEBOYGAN LKSHOR 0100   50 51  320/  9/ 11 1015.7R
KEWAUNEE LKSHORE 0100   49                   N/A
TWO RIVERS CG    0100   48                 1015.5      6   1
NORTHPORT PIER   0100   47     350/ 19/ 25 1015.2R
N MID LAKE BUOY  0100   47 52  340/ 25/ 29 1013.8R         5/ 5
STURGEON BAY CG  0000   47 48  360/  4     1012.4      6   1
CHAMBERS ISLAND  0100   49     330/ 15/ 19 1015.2R
MENOMINEE LKSHOR 0100   49                   N/A
$$



USA.gov is the U.S. government's official web portal to all federal, state and local government web resources and services.